Location: Newark
(41.0833°N, 9.3833°E)
Time: 04:35:14
(UTC+00:00)

ISS - Visible Passes

Search period start: 05 April 2020 00:00
Search period end: 15 April 2020 00:00
Orbit: 418 x 423 km, 51.6° (Epoch: 05 April)

Date Brightness Start Highest point End Pass type
(mag) Time Alt. Az. Time Alt. Az. Time Alt. Az.
05 Apr -2.9 19:05:15 10° WNW 19:08:29 44° SW 19:10:16 22° SSE visible
06 Apr -3.7 18:18:01 10° NW 18:21:23 79° SW 18:24:44 10° SE visible
07 Apr -1.1 19:08:40 10° W 19:10:41 15° SW 19:12:43 10° SSW visible
08 Apr -1.7 18:20:51 10° WNW 18:23:41 25° SW 18:26:30 10° SSE visible
